ROMMA est une association bénévole à but non lucratif. Votre soutien est indispensable : ADHERER à ROMMA ou FAIRE un DON

Challes-les-Eaux - (73, Savoie)

Trouée des Marches (325 m)   Longitude: 05° 58' E   Latitude: 45° 32' N Station romma n°148
 

Détail journalier du     <<     >>

Température Precipitation Humidité Pression Vent Dir Rafale Dir. rafale
Heure (°C) (mm) (%) (hPa) (km/h) (km/h)
01:00 14.109110201ONO11ONO
02:00 13.809010202N6N
03:00 13.709010202NNO6NO
04:00 13.709010203N6N
05:00 13.409010203N10O
06:00 13.209010202NNO10NNO
07:00 13.109110212NNO10ONO
08:00 13.009010213N10O
09:00 13.508910213N8N
10:00 14.008710212N6NNO
11:00 14.408510213NNO10ONO
12:00 16.108210203N13ONO
13:00 16.908110205ONO15ONO
14:00 17.207810206NNO16NNO
15:00 16.807810197ONO21O
16:00 16.608010195ONO18ONO
17:00 15.408310204ONO18O
18:00 14.708510203N11N
19:00 13.808810203N11NNE
20:00 13.508910203N13N
21:00 13.109010201N6N
22:00 12.909110202N5N
23:00 12.709110211N5NNO
minuit 12.109210211N3N

Graphique du 30-10-2019

 

Serveur OMMA